Regional Weather Roundup
Issued by NWS

Home | Current Version | Previous Version | Graphics & Text | Print | Product List | Glossary On
Versions: 1 2 3 4 5 6 7 8 9 10 11 12 13 14 15 16 17 18 19 20 21 22 23 24 25 26 27 28 29 30 31 32 33 34 35 36 37 38 39 40 41 42 43 44 45 46 47 48 49 50
000
ASUS43 KIND 251009
RWRIN

WEATHER ROUNDUP FOR INDIANA
NATIONAL WEATHER SERVICE INDIANAPOLIS IN
600 AM EDT WED APR 25 2018

NOTE: "FAIR" INDICATES FEW OR NO CLOUDS BELOW 12,000 FEET WITH NO
SIGNIFICANT WEATHER AND/OR OBSTRUCTIONS TO VISIBILITY.

* - STATION DOES NOT REPORT WEATHER SUCH AS PRECIPITATION OR FOG.

+ - STATION NOT QUALITY CONTROLLED BY THE NATIONAL WEATHER SERVICE.
    USE DATA WITH CAUTION...ESPECIALLY DEWPOINT AND RELATIVE
    HUMIDITY OBSERVATIONS.

INZ001>003-010>013-019-020-251100-
NORTHWEST INDIANA

CITY           SKY/WX    TMP DP  RH WIND       PRES   REMARKS
GARY /AIRPORT/ CLOUDY    43  34  70 N20       30.04R
KNOX *+        CLOUDY    43  41  93 NW10      29.98S
LA PORTE +     MOCLDY    42  38  87 N10       30.00R
MICHIGAN CITY+ CLOUDY    41  37  87 N8        30.01S
MONTICELLO +   CLOUDY    46  44  95 N12       29.97R FOG
RENSSELAER +   CLOUDY    43  37  81 NW9       30.00R
VALPARAISO     CLOUDY    44  38  79 N12       30.00S

$$

LMZ046-743>745-251100-
SOUTHERN LAKE MICHIGAN

STATION/POSITION TIME  TEMP    WIND        PRES    WAVE
                       AIR SEA DIR/SP/G            HT
                 (UTC) (F)     (DEG/KT/KT) (MB)    (FT)
BURNS HARBOR     0940   41      20/  9/ 11 1017.3R
MICHIGAN CITY    0940   41      10/  8/  9   N/A

$$

INZ004-005-014>016-021>024-251100-
NORTH CENTRAL INDIANA

CITY           SKY/WX    TMP DP  RH WIND       PRES   REMARKS
GOSHEN         CLOUDY    53  51  93 N9        29.95R
LOGANSPORT +   CLOUDY    50  46  87 NW8       29.97R
PERU/GRISSOM   MOCLDY    51  51 100 NW7       29.93S
ROCHESTER +    CLOUDY    52  50  93 NW7       29.96R
SOUTH BEND     CLOUDY    47  45  93 N12       29.98S
WARSAW +       MOCLDY    50  50 100 N5        29.94S FOG

$$

INZ006>009-017-018-025>027-251100-
NORTHEAST INDIANA

CITY           SKY/WX    TMP DP  RH WIND       PRES   REMARKS
ANGOLA *+      CLOUDY    52  50  93 N9        29.92S
AUBURN +       CLOUDY    50  50 100 NW5       29.93S FOG
FORT WAYNE     CLOUDY    50  50 100 N8        29.93S
HUNTINGTON +   CLOUDY    50  49  96 N3        29.93S

$$

INZ028-029-035-036-043>045-051>053-251100-
WEST CENTRAL INDIANA

CITY           SKY/WX    TMP DP  RH WIND       PRES   REMARKS
CRAWFORDSVL +  FAIR      45  45 100 N6        29.96R FOG
GREENCASTLE +  FAIR      46  46 100 NW5       29.95S
LAFAYETTE      CLOUDY    46  46 100 N7        29.97R FOG
TERRE HAUTE    FAIR      49  48  97 NW5       29.96R FOG

$$

INZ030>032-037>040-046>048-054>057-064-065-251100-
CENTRAL INDIANA

CITY           SKY/WX    TMP DP  RH WIND       PRES   REMARKS
FISHERS *+     CLOUDY    50  50 100 N6        29.94S
FRANKFORT +    MOCLDY    49  47  93 N7        29.97R FOG
GREENWOOD *+   CLOUDY    51  50  97 NW5       29.94S
INDIANAPOLIS   MOCLDY    49  48  97 N8        29.94R FOG
-EAGLE CREEK   MOCLDY    50  48  93 NW7       29.93S FOG
KOKOMO +       CLOUDY    51  50  96 NW7       29.95S FOG
MARION +       CLOUDY    51  50  95 CALM      29.94S
MT COMFORT *+  CLOUDY    50  50 100 NW7       29.93S
SHELBYVILLE    CLOUDY    53  49  86 N7        29.92R
ZIONSVILLE +   CLOUDY    48  48  99 N9        29.95R FOG

$$

INZ033-034-041-042-049-050-058-059-251100-
EAST CENTRAL INDIANA

CITY           SKY/WX    TMP DP  RH WIND       PRES   REMARKS
MUNCIE         CLOUDY    52  49  89 N10       29.92S
RICHMOND +     CLOUDY    48  48 100 N12       29.91R FOG

$$

INZ060-061-067>069-081>083-085>088-251100-
SOUTHWEST INDIANA

CITY           SKY/WX    TMP DP  RH WIND       PRES   REMARKS
EVANSVILLE     FOG       46  46 100 SW3       29.97R VSB 1/4
HUNTINGBURG +  FOG       49  48  97 CALM      29.95F VSB 1/4
WASHINGTON +   FAIR      48  46  93 NW5       29.95S FOG

$$

INZ062-063-066-070>080-084-089>092-251100-
SOUTH CENTRAL AND SOUTHEAST INDIANA

CITY           SKY/WX    TMP DP  RH WIND       PRES   REMARKS
BATESVILLE +   CLOUDY    52  52 100 MISG      29.91R
BEDFORD +      MOCLDY    52  48  87 CALM      29.93S FOG
BLOOMINGTON    FOG       48  47  96 CALM      29.94R VSB 3/4
FRENCH LICK *+ CLOUDY    52 N/A N/A CALM      29.95S
MADISON *+     CLOUDY    54  50  87 NW5       29.93R
NORTH VERNON + CLOUDY    52  48  87 N12       29.93R
SEYMOUR +      CLOUDY    54  50  87 N7        29.93S

$$





USA.gov is the U.S. government's official web portal to all federal, state and local government web resources and services.